Weather Roundup
Issued by NWS Chicago, IL

Home | Current Version | Previous Version | Graphics & Text | Print | Product List | Glossary On
Versions: 1 2 3 4 5 6 7 8 9 10 11 12 13 14 15 16 17 18 19 20 21 22 23 24 25 26 27 28 29 30 31 32 33 34 35 36 37 38 39 40 41 42 43 44 45 46 47 48 49 50
000
NZUS59 KLOT 190400
HRRLOT

CHICAGO AREA WEATHER ROUNDUP
NATIONAL WEATHER SERVICE CHICAGO/ROMEOVILLE IL
1000 PM CST THU DEC 18 2014

NOTE: "FAIR" INDICATES FEW OR NO CLOUDS BELOW 12,000 FEET WITH NO
SIGNIFICANT WEATHER AND/OR OBSTRUCTIONS TO VISIBILITY.

* THESE STATIONS ARE NOT UNDER NWS QUALITY CONTROL. THEY ALSO MAY NOT
  REPORT WEATHER SUCH AS PRECIPITATION OR FOG.

ILZ005-006-012>014-019>023-190500-
NORTHEAST ILLINOIS

CITY           SKY/WX    TMP DP  RH WIND       PRES   REMARKS
OHARE          CLOUDY    28  20  71 NW5       30.24F WCI  23
MIDWAY         CLOUDY    30  20  66 NW7       30.25S WCI  23
AURORA         CLOUDY    27  20  75 W7        30.26F WCI  19
WAUKEGAN       CLOUDY    27  23  85 NW6       30.24S WCI  20
DUPAGE AIRPORT CLOUDY    27  19  72 W6        30.24F WCI  20
WHEELING       CLOUDY    28  23  81 NW6       30.26F WCI  22
NORTHERLY IS     N/A     30  21  69 W8          N/A  WCI  23
$$

WIZ051-052-058>065-066-070>072-190500-
SOUTHEAST WISCONSIN

CITY           SKY/WX    TMP DP  RH WIND       PRES   REMARKS
MILWAUKEE      CLOUDY    28  20  71 W6        30.25S WCI  22
KENOSHA*       CLOUDY    28  23  81 N5        30.25S WCI  23
RACINE*        CLOUDY    28  23  81 CALM      30.27R
$$

INZ001>003-010>013-019-020-190500-
NORTHWEST INDIANA

CITY           SKY/WX    TMP DP  RH WIND       PRES   REMARKS
GARY*          CLOUDY    28  18  64 W9        30.27R WCI  20
MICHIGAN CITY* NOT AVBL
RENSSELAER*    NOT AVBL
$$

LMZ740>746-190500-
SOUTHERN LAKE MICHIGAN

STATION/POSITION TIME  SKY/WX   TEMP WIND        PRES    VSBY
                                AIR  DIR/SP/G
                 (UTC)          (F)  (DEG/KT/KT) (MB)    (MI)
HARRISON CRIB    0300            28  330/  7/  8   N/A
BURNHAM HARBOR   0400            30  300/  7       N/A
CALUMET HARBOR   0300            28  240/  3/  6 1023.2R
BURNS HARBOR     NOT AVBL
MICHIGAN CITY    NOT AVBL
$$

ABBREVIATIONS USED IN REMARKS
   TC - TEMPERATURE IN CELSIUS
  WCI - WIND CHILL INDEX
   HX - HEAT INDEX
  VSB - VISIBILITY
$$



USA.gov is the U.S. government's official web portal to all federal, state and local government web resources and services.